Home   Weather   Jujuy   Past weeks

Flag for Argentina Past Weather in Jujuy, Jujuy, Argentina — Yesterday and Last 2 Weeks

59 °F


Feels Like: 59 °F
Forecast: 55 / 75 °F
Wind: 2 mph from Northwest

Location: Jujuy Aerodrome

Current Time: Oct 26, 2016 at 8:39:29 AM

Latest Report: Oct 26, 2016 at 8:00 AM

Visibility: 10 mi

Pressure: 30.15 "Hg (21.39 "Hg at 2895m altitude)

Humidity: 82%

Dew Point: 54 °F

Location of JujuyLocation

Past Weather in Jujuy — Graph


Jujuy Temperature Yesterday

Maximum temperature yesterday: 77 °F (at 12:00 PM)
Minimum temperature yesterday: 57 °F (at 7:00 PM)
Average temperature yesterday: 68 °F

High & Low Weather Summary for the Past Weeks

High97 °F (Oct 12, 4:00 PM)94% (Oct 18, 11:00 PM)30.24 "Hg (Oct 18, 11:00 PM)
Low54 °F (Oct 21, 3:00 AM)16% (Oct 15, 5:00 PM)29.56 "Hg (Oct 15, 4:00 PM)
Average71 °F65%29.88 "Hg
* Reported Oct 11 8:00 AM — Oct 26 7:00 AM, Jujuy, Weather by CustomWeather, © 2016

Note: Actual official high and low records may vary slightly from our data, if they occured in-between our weather recording intervals... More about our weather records


Jujuy Weather History for the Previous 24 Hours

Scroll right to see more
Time TempWeatherWind HumidityBarometerVisibility
7:00 AM
Wed, Oct 26
57 °FBroken clouds.6 mph82%30.12 "HgN/A
6:00 AM55 °FPassing clouds.7 mph88%30.09 "HgN/A
5:00 AM59 °FPassing clouds.6 mph82%30.07 "HgN/A
4:00 AM59 °FPassing clouds.5 mph82%30.07 "HgN/A
3:00 AM59 °FPassing clouds.6 mph77%30.07 "HgN/A
2:00 AM59 °FPassing clouds.8 mph72%30.07 "HgN/A
12:00 AM59 °FPartly cloudy.7 mph77%30.12 "HgN/A
11:00 PM
Tue, Oct 25
59 °FMostly cloudy.No wind82%30.12 "HgN/A
10:00 PM59 °FMostly cloudy.8 mph82%30.09 "HgN/A
9:00 PM59 °FMostly cloudy.8 mph72%30.07 "HgN/A
8:00 PM57 °FDrizzle. Mostly cloudy.12 mph88%30.01 "Hg4 mi
7:00 PM57 °FMore clouds than sun.18 mph94%29.98 "Hg1 mi
6:00 PM63 °FOvercast.21 mph77%29.95 "Hg4 mi
5:00 PM68 °FMore clouds than sun.21 mph60%29.89 "HgN/A
4:00 PM68 °FMore clouds than sun.12 mph60%29.89 "HgN/A
3:00 PM68 °FMore clouds than sun.14 mph56%29.89 "HgN/A
2:00 PM70 °FMore clouds than sun.17 mph53%29.89 "HgN/A
1:00 PM72 °FBroken clouds.15 mph53%29.92 "HgN/A
12:00 PM77 °FBroken clouds.17 mph42%29.95 "HgN/A
11:00 AM70 °FMore clouds than sun.15 mph64%29.98 "HgN/A
10:00 AM70 °FMore clouds than sun.17 mph69%29.98 "HgN/A
9:00 AM68 °FBroken clouds.15 mph73%29.98 "HgN/A
8:00 AM68 °FBroken clouds.17 mph73%29.95 "HgN/A
Weather by CustomWeather, © 2016

See weather overviewHow to use our weather pages